Wind_Speed
8 8 7 7 7 7 6 6 6 5 5 5 5 6 6 6 6 6 6 6 6 6 6 7 7 7 8 8 8 8 9 9 9 10 10 10 9 9 9 8 7 6 6
8 7 6 7 7 7 6 6 6 6 5 5 5 5 5 5 5 5 6 7 7 7 7 7 7 7 8 8 9 9 10 10 10 11 11 11 11 11 11 10 10 9 8
9 7 6 6 6 6 5 4 4 4 4 5 5 5 5 5 5 5 5 6 6 7 7 7 8 8 8 8 8 9 10 11 11 12 12 13 13 13 12 12 12 11 11
9 8 7 7 6 5 4 3 3 3 4 4 4 5 5 5 5 5 5 5 6 6 6 7 8 8 8 8 9 10 11 11 11 12 12 13 14 14 14 14 14 14 13
10 8 8 7 5 5 4 4 3 3 3 3 4 4 4 5 5 5 5 5 5 6 7 7 8 9 9 10 10 10 11 12 12 12 13 14 15 15 16 16 16 16 16
10 9 8 8 6 5 4 4 3 3 2 2 2 3 3 4 4 5 5 5 6 7 7 7 8 9 9 10 10 11 11 12 13 13 14 15 16 16 17 18 18 18 18
11 10 9 8 6 5 5 4 3 3 2 1 1 1 2 3 3 4 4 4 5 6 7 8 8 8 8 9 10 11 11 12 13 14 15 16 17 17 17 18 19 19 19
12 11 10 9 8 6 5 4 4 3 2 1 2 2 2 2 2 3 3 4 5 6 6 7 8 8 9 9 10 11 11 12 13 15 15 16 17 17 18 19 19 21 22
12 12 11 10 9 7 6 5 4 3 2 2 2 2 2 2 2 3 4 5 6 6 7 7 7 8 9 9 10 11 12 12 13 14 14 15 16 17 18 19 20 21 22
12 12 12 10 9 8 6 6 5 4 3 2 2 1 1 1 2 3 4 5 5 6 7 7 8 8 9 9 10 11 11 12 12 13 14 15 16 17 18 19 20 21 21
13 13 12 11 10 8 7 6 5 4 3 2 2 1 1 2 3 4 4 5 6 6 7 7 8 9 9 10 11 11 12 12 13 14 15 16 17 17 19 20 21 22 22
14 14 13 12 10 9 8 6 5 4 3 3 2 2 3 3 4 4 5 6 6 6 7 8 9 10 10 11 11 12 13 13 14 15 16 16 17 18 19 20 20 22 23
15 15 14 13 11 10 9 7 5 4 4 4 4 4 4 5 5 6 6 7 7 8 9 10 10 11 11 12 12 13 13 14 15 16 17 17 18 19 19 20 21 22 23
16 16 14 13 12 11 9 8 7 6 6 6 6 7 7 7 7 8 8 8 9 10 11 11 12 13 13 14 14 15 15 16 17 17 18 19 19 20 21 22 22 23 23
17 16 14 13 12 11 10 9 8 8 8 8 8 9 9 10 10 10 10 10 11 12 13 13 14 14 15 15 16 17 17 18 18 18 19 20 21 22 23 23 24 25 25
17 16 15 13 12 11 11 10 10 9 10 10 10 10 11 12 12 12 13 13 13 14 14 15 16 16 17 17 18 19 19 19 20 20 21 21 22 23 24 24 25 26 27
17 16 15 14 13 13 12 12 11 11 12 12 12 13 13 14 14 15 15 16 16 17 17 18 18 19 20 20 21 21 22 22 22 23 23 23 24 25 25 26 26 27 28
16 16 15 15 14 14 14 14 14 14 14 14 15 15 16 16 17 17 18 18 19 20 20 21 21 22 22 23 23 24 24 25 25 25 26 26 26 27 28 28 29 29 30
16 16 16 16 15 16 16 16 16 16 16 17 17 17 18 19 19 20 20 21 21 22 23 23 24 24 25 25 26 26 27 27 27 28 28 29 29 30 30 31 31 32 32
16 17 17 17 17 18 18 18 18 18 19 19 19 20 21 21 22 22 23 23 24 24 25 26 26 27 27 28 28 29 29 29 30 30 31 32 32 32 33 33 33 34 35
17 17 18 18 19 19 19 20 20 21 21 22 22 23 24 24 25 25 26 26 26 27 28 28 29 29 30 30 31 31 31 32 33 34 34 35 35 35 36 36 36 37 37
20 20 20 20 21 21 22 22 23 24 24 24 25 26 27 27 27 28 29 29 30 30 31 31 31 32 32 33 34 34 34 34 35 37 37 37 38 38 38 39 39 40 40
22 22 22 23 23 24 24 25 25 26 27 27 28 29 29 30 30 31 32 32 33 33 33 34 34 35 35 36 37 37 38 38 38 39 40 39 41 41 42 42 43 43 43
24 24 25 25 25 26 26 27 28 28 29 30 30 31 32 32 33 33 34 34 35 36 36 37 37 37 38 39 40 40 41 41 41 42 43 43 43 44 45 45 46 46 46
26 26 26 27 27 28 29 29 30 31 32 32 33 34 34 35 36 36 36 37 37 38 39 40 40 41 41 42 43 44 44 44 44 44 46 47 46 47 47 48 49 49 49
27 27 27 28 29 30 30 31 32 33 33 34 35 36 37 37 38 39 39 39 39 40 41 42 43 44 45 46 46 47 47 47 47 47 48 50 50 50 49 49 51 52 52
Wind_Direction
256 258 262 266 265 266 269 272 262 250 245 243 244 249 255 257 248 250 248 247 245 241 246 252 255 249 244 241 243 243 241 240 241 238 240 241 241 239 237 235 237 240 244
250 257 257 256 260 262 264 267 261 252 242 241 243 248 250 253 250 247 253 258 252 247 247 250 256 257 249 243 245 248 245 245 247 246 246 246 243 241 238 240 241 243 245
241 249 250 249 251 254 254 254 255 245 240 241 245 250 251 249 246 247 259 260 253 247 249 253 262 265 260 254 253 253 251 251 250 248 249 248 246 244 242 242 244 246 248
232 235 233 235 238 238 233 232 237 239 239 245 249 250 247 245 245 247 255 258 255 258 256 258 266 270 263 262 264 264 258 256 255 253 254 253 250 249 247 248 248 249 250
222 222 222 225 227 222 221 226 237 243 245 253 257 253 246 247 246 243 250 259 263 263 264 263 266 267 265 265 266 269 264 259 259 259 258 256 254 254 253 253 251 252 252
213 214 212 216 215 211 213 217 227 239 251 256 257 250 242 242 246 249 252 258 265 266 269 268 270 268 268 268 268 269 268 264 262 260 259 259 258 257 258 257 256 257 257
210 210 207 207 200 196 197 199 207 221 230 228 238 241 233 236 249 258 263 266 272 275 275 272 273 274 276 277 274 274 272 268 265 263 262 261 261 261 261 261 259 259 261
209 207 206 201 197 198 199 200 199 206 208 205 219 219 220 228 257 270 281 281 282 284 287 285 283 283 284 281 280 279 278 276 275 272 270 269 267 265 264 265 265 262 262
206 205 201 198 197 200 203 200 196 193 198 201 207 212 211 244 269 281 286 285 285 286 289 291 293 291 286 283 282 281 281 280 280 278 275 273 272 272 270 269 267 265 264
203 200 198 196 194 195 191 187 181 181 190 195 200 212 231 263 280 294 298 299 298 295 294 295 296 296 295 291 288 286 284 284 284 281 280 279 277 276 274 273 271 269 269
198 196 194 194 194 192 188 183 178 182 190 199 211 232 270 293 299 304 305 306 305 302 300 301 304 302 299 296 295 293 290 289 288 288 287 284 281 280 278 276 275 272 272
195 196 196 195 195 195 195 191 190 198 209 227 241 260 280 294 301 305 307 308 308 308 305 303 302 301 301 301 300 297 294 294 292 290 289 288 286 284 282 279 277 277 276
197 199 198 196 196 197 200 203 212 221 232 246 256 266 277 286 294 299 302 303 305 306 304 303 302 300 300 300 300 299 296 294 293 291 290 289 288 287 285 283 280 279 278
197 198 197 199 201 204 208 218 228 236 245 254 263 269 274 279 285 291 295 297 298 299 300 300 300 300 299 299 298 297 296 295 294 293 292 291 289 287 286 284 283 281 279
197 198 200 204 208 211 217 226 233 242 251 260 266 271 276 281 283 286 290 294 296 295 296 297 297 298 298 297 297 297 296 295 294 294 293 291 290 288 286 285 283 282 281
200 203 206 209 214 220 227 233 239 247 255 262 267 272 277 280 282 284 287 290 293 294 295 296 295 295 294 295 295 295 295 294 293 292 292 291 290 289 288 287 285 283 282
204 207 211 215 221 228 235 240 246 253 259 264 269 273 277 279 281 282 285 287 289 291 293 294 294 293 293 293 293 293 292 292 291 291 291 290 290 289 289 288 287 286 284
208 212 217 223 230 237 242 247 252 258 263 268 272 275 277 279 281 283 285 287 289 291 291 292 292 292 292 292 291 291 290 290 290 289 290 290 290 290 289 288 287 286 285
215 219 224 230 238 244 248 252 256 262 266 270 273 276 279 280 281 283 285 288 289 290 291 291 291 291 291 291 291 290 290 290 289 289 289 289 289 289 289 288 287 286 285
224 229 233 238 244 249 253 257 261 265 268 271 274 277 279 281 282 283 285 287 288 289 289 289 289 290 290 290 290 291 291 290 290 289 290 290 289 289 288 287 286 285 284
233 238 242 246 249 253 257 260 264 267 270 272 275 278 280 282 283 285 286 287 288 288 288 289 289 290 290 290 290 291 290 289 289 289 290 290 290 289 288 288 287 286 285
240 243 247 250 253 256 259 262 266 269 272 274 277 280 281 282 284 286 287 287 287 288 289 290 290 290 289 289 289 289 289 288 288 288 289 290 290 290 289 288 288 287 286
243 247 250 252 255 258 261 265 268 271 274 275 277 279 281 283 284 285 286 287 287 288 288 289 290 290 289 289 289 289 289 288 288 287 287 288 289 289 289 288 288 287 285
249 252 254 255 258 260 264 267 269 271 274 276 278 280 282 283 284 284 285 286 287 287 288 288 289 290 289 289 289 289 288 288 288 288 287 287 287 288 289 288 288 287 285
252 254 256 257 260 262 265 267 270 272 274 276 278 281 282 283 283 285 285 285 286 287 287 288 289 289 289 288 288 288 288 287 287 287 288 288 287 287 288 288 288 287 286
256 257 260 261 262 264 267 269 271 273 275 277 279 281 282 283 283 285 285 285 286 286 286 288 288 289 289 288 288 288 288 288 288 288 288 288 288 288 288 288 288 287 285
Height
5876 5876 5877 5878 5879 5880 5881 5882 5883 5883 5884 5885 5885 5886 5887 5887 5888 5889 5889 5890 5891 5892 5892 5893 5893 5894 5894 5895 5895 5896 5897 5897 5898 5899 5899 5900 5901 5901 5902 5903 5904 5904 5905
5874 5875 5875 5877 5878 5879 5880 5880 5881 5882 5883 5884 5884 5885 5885 5886 5887 5887 5888 5888 5889 5890 5890 5891 5892 5892 5892 5893 5893 5894 5895 5895 5896 5897 5897 5898 5899 5900 5900 5901 5902 5903 5903
5872 5873 5874 5875 5877 5878 5878 5879 5880 5881 5882 5882 5883 5884 5884 5885 5885 5886 5886 5887 5887 5888 5889 5889 5890 5890 5890 5891 5891 5892 5892 5893 5894 5894 5895 5896 5897 5897 5898 5899 5900 5901 5901
5871 5872 5873 5875 5876 5877 5878 5879 5880 5880 5881 5881 5882 5882 5883 5883 5884 5885 5885 5886 5886 5887 5887 5888 5888 5888 5889 5889 5889 5890 5890 5891 5891 5892 5893 5893 5894 5895 5896 5897 5897 5898 5899
5869 5870 5872 5874 5875 5876 5877 5878 5879 5880 5880 5881 5881 5881 5882 5883 5883 5883 5884 5884 5885 5885 5885 5886 5886 5886 5887 5887 5887 5887 5888 5888 5889 5889 5890 5890 5891 5892 5893 5894 5894 5895 5896
5867 5869 5871 5873 5874 5875 5876 5877 5878 5879 5879 5880 5880 5881 5881 5882 5882 5882 5883 5883 5883 5884 5884 5884 5884 5884 5884 5885 5885 5885 5885 5885 5886 5886 5887 5888 5888 5889 5889 5890 5891 5892 5892
5866 5868 5870 5872 5873 5874 5876 5876 5877 5878 5879 5879 5880 5880 5880 5881 5881 5881 5881 5882 5882 5882 5882 5882 5882 5883 5883 5883 5883 5883 5883 5883 5883 5883 5884 5884 5885 5885 5886 5886 5887 5888 5889
5865 5867 5869 5871 5872 5874 5875 5876 5877 5877 5878 5879 5879 5880 5880 5881 5880 5880 5881 5881 5881 5881 5881 5881 5881 5881 5881 5881 5881 5880 5880 5880 5880 5880 5881 5881 5881 5881 5882 5882 5883 5884 5884
5863 5866 5868 5870 5872 5873 5874 5875 5876 5877 5878 5878 5879 5879 5880 5880 5880 5880 5880 5880 5880 5879 5879 5879 5879 5879 5878 5878 5878 5878 5878 5877 5877 5877 5877 5877 5877 5878 5878 5878 5878 5879 5879
5862 5864 5867 5869 5871 5873 5874 5875 5875 5876 5877 5878 5878 5879 5879 5879 5880 5880 5879 5879 5878 5878 5878 5877 5877 5877 5876 5876 5875 5875 5875 5875 5874 5874 5874 5874 5874 5874 5874 5874 5874 5874 5874
5861 5864 5866 5868 5870 5872 5873 5874 5875 5876 5877 5877 5878 5878 5878 5879 5879 5879 5878 5878 5877 5877 5876 5876 5875 5874 5874 5873 5873 5872 5872 5872 5871 5871 5870 5870 5870 5870 5869 5869 5869 5869 5869
5860 5863 5865 5867 5869 5871 5872 5873 5874 5875 5876 5877 5877 5878 5878 5878 5878 5878 5877 5877 5876 5876 5875 5874 5873 5873 5872 5871 5870 5870 5869 5868 5868 5867 5867 5866 5866 5865 5865 5865 5864 5864 5864
5859 5861 5864 5866 5868 5870 5871 5873 5874 5875 5875 5876 5876 5877 5877 5877 5877 5876 5876 5875 5874 5874 5873 5872 5871 5870 5869 5868 5868 5867 5866 5865 5864 5864 5863 5862 5862 5861 5860 5860 5859 5859 5858
5857 5860 5862 5865 5867 5868 5870 5871 5872 5873 5874 5874 5875 5875 5875 5875 5875 5874 5874 5873 5872 5872 5871 5870 5869 5868 5867 5866 5865 5863 5863 5862 5861 5860 5859 5858 5857 5856 5855 5855 5854 5853 5852
5856 5858 5861 5863 5865 5867 5869 5870 5871 5872 5872 5873 5873 5873 5873 5873 5872 5872 5871 5871 5870 5869 5868 5867 5866 5865 5863 5862 5861 5860 5859 5858 5857 5856 5854 5853 5852 5851 5850 5849 5848 5847 5846
5854 5857 5859 5862 5864 5865 5867 5868 5869 5869 5870 5870 5871 5871 5870 5870 5870 5869 5868 5868 5867 5866 5865 5864 5863 5861 5860 5858 5857 5856 5854 5853 5852 5850 5849 5848 5847 5845 5844 5843 5842 5841 5840
5853 5855 5858 5860 5862 5863 5864 5865 5866 5867 5868 5868 5868 5868 5867 5867 5866 5866 5865 5864 5863 5862 5861 5860 5858 5857 5855 5854 5852 5851 5849 5848 5846 5845 5843 5842 5840 5839 5838 5836 5835 5834 5832
5851 5853 5855 5857 5859 5861 5862 5863 5863 5864 5864 5865 5864 5864 5864 5863 5863 5862 5861 5860 5859 5858 5856 5855 5853 5852 5850 5849 5847 5845 5844 5842 5840 5838 5837 5835 5834 5832 5830 5829 5827 5826 5825
5848 5851 5853 5855 5856 5858 5859 5859 5860 5860 5861 5861 5861 5860 5860 5859 5858 5857 5856 5855 5854 5853 5851 5850 5848 5846 5844 5843 5841 5839 5837 5836 5834 5832 5830 5828 5826 5824 5823 5821 5819 5818 5816
5846 5848 5850 5851 5853 5854 5855 5855 5856 5856 5856 5856 5856 5855 5855 5854 5853 5852 5851 5850 5848 5847 5845 5844 5842 5840 5838 5836 5834 5832 5830 5828 5826 5824 5822 5820 5818 5816 5814 5812 5810 5808 5807
5842 5844 5846 5847 5848 5849 5850 5851 5851 5851 5851 5851 5850 5850 5849 5848 5847 5846 5845 5843 5842 5840 5838 5837 5835 5833 5831 5829 5827 5825 5823 5820 5818 5815 5814 5811 5809 5807 5805 5803 5801 5798 5796
5838 5840 5841 5843 5844 5845 5845 5845 5845 5845 5845 5845 5844 5844 5843 5842 5841 5839 5838 5836 5835 5832 5831 5829 5827 5825 5823 5820 5818 5816 5814 5812 5810 5807 5804 5802 5799 5797 5794 5792 5790 5788 5785
5834 5835 5836 5838 5838 5839 5839 5840 5840 5839 5839 5838 5837 5836 5835 5834 5833 5832 5830 5828 5826 5824 5822 5820 5818 5816 5814 5811 5808 5806 5804 5801 5799 5797 5794 5792 5788 5786 5783 5780 5778 5775 5773
5828 5829 5831 5831 5832 5833 5833 5833 5833 5832 5832 5831 5830 5829 5828 5826 5824 5823 5821 5819 5817 5815 5812 5810 5809 5806 5804 5801 5798 5795 5793 5790 5788 5785 5781 5780 5777 5774 5771 5768 5765 5762 5760
5823 5824 5824 5825 5825 5825 5825 5825 5825 5825 5824 5823 5822 5820 5819 5817 5815 5813 5811 5809 5807 5805 5802 5800 5797 5795 5792 5789 5786 5783 5781 5778 5776 5773 5768 5766 5764 5761 5758 5755 5751 5747 5745
5816 5817 5817 5818 5818 5818 5818 5817 5817 5816 5816 5815 5813 5811 5809 5807 5805 5803 5801 5798 5796 5793 5791 5788 5785 5782 5779 5776 5773 5770 5767 5764 5761 5759 5755 5751 5749 5745 5744 5741 5736 5732 5729